Weather History for Mitchell, SD

Change the Weather History Date:

Sunday, September 29, 2013

  Actual Average Record
Temperature  
Mean Temperature 62 °F 57 °F  
Max Temperature 83 °F 70 °F 93 °F (1991)
Min Temperature 41 °F 43 °F 11 °F (1899)
Degree Days  
Heating Degree Days 3 9  
Month to date heating degree days 38 132  
Since 1 July heating degree days 61 149  
Cooling Degree Days 0 1  
Month to date cooling degree days 158 72  
Year to date cooling degree days 939 817  
Growing Degree Days 12 (Base 50)    
Moisture  
Dew Point 44 °F    
Average Humidity 60    
Maximum Humidity 96    
Minimum Humidity 24    
Precipitation  
Precipitation 0.00 in 0.08 in 0.53 in (2007)
Month to date precipitation 2.44 2.25  
Year to date precipitation 20.93 18.60  
Snow  
Snow 0.00 in - 0.00 in ()
Month to date snowfall 0.0  
Since 1 July snowfall 0.0  
Since 1 September snowfall 0.0  
Snow Depth 0.00 in    
Sea Level Pressure  
Sea Level Pressure 29.80 in    
Wind  
Wind Speed 11 mph (South)    
Max Wind Speed 22 mph    
Max Gust Speed 30 mph    
Visibility 10 miles    
Events      
T = Trace of Precipitation, MM = Missing Value Source: NWS Daily Summary

Daily Weather History Graph

Daily Weather History Graph

Search for Another Location

Airport:

Trip Planner

Search our weather history database for the weather conditions in past years. The results will help you decide how hot, cold, wet, or windy it might be!

Date:

Astronomy

Sep. 29, 2013 Rise Set
Actual Time 7:27 AM CDT 7:16 PM CDT
Civil Twilight 6:59 AM CDT 7:44 PM CDT
Nautical Twilight 6:25 AM CDT 8:18 PM CDT
Astronomical Twilight 5:51 AM CDT 8:51 PM CDT
Moon 2:01 AM CDT (9/29) 4:20 PM CDT (9/29)
Length of Visible Light 12h 45m
Length of Day
11h 48m
Waning Crescent, 27% of the Moon is Illuminated
Sep 29
Waning Crescent
Oct 4
New
Oct 11
First Quarter
Oct 18
Full
Oct 26
Last Quarter

Hourly Weather History & Observations

Time (CDT) Temp. Windchill Dew Point Humidity Pressure Visibility Wind Dir Wind Speed Gust Speed Precip Events Conditions
12:53 AM 53.1 °F - 42.1 °F 66% 29.95 in 10.0 mi SSW 9.2 mph - N/A   Clear
1:53 AM 52.0 °F - 42.1 °F 69% 29.95 in 10.0 mi SSW 9.2 mph - N/A   Clear
2:53 AM 52.0 °F - 41.0 °F 66% 29.94 in 10.0 mi SSW 6.9 mph - N/A   Clear
3:53 AM 46.9 °F - 41.0 °F 80% 29.92 in 10.0 mi SE 4.6 mph - N/A   Clear
4:53 AM 46.0 °F 41.9 °F 41.0 °F 83% 29.91 in 10.0 mi SSE 8.1 mph - N/A   Clear
5:53 AM 44.1 °F 40.8 °F 41.0 °F 89% 29.91 in 10.0 mi SSE 5.8 mph - N/A   Clear
6:53 AM 42.1 °F 40.2 °F 39.0 °F 89% 29.91 in 10.0 mi SSE 3.5 mph - N/A   Clear
7:53 AM 43.0 °F 41.3 °F 41.0 °F 93% 29.91 in 10.0 mi SE 3.5 mph - N/A   Clear
8:53 AM 48.9 °F - 44.1 °F 83% 29.90 in 10.0 mi SE 4.6 mph - N/A   Clear
9:53 AM 57.0 °F - 46.0 °F 67% 29.88 in 10.0 mi SSE 4.6 mph - N/A   Clear
10:53 AM 63.0 °F - 48.0 °F 58% 29.87 in 10.0 mi South 9.2 mph - N/A   Clear
11:53 AM 72.0 °F - 50.0 °F 46% 29.84 in 10.0 mi SSE 9.2 mph - N/A   Clear
12:53 PM 77.0 °F - 46.0 °F 33% 29.80 in 10.0 mi South 11.5 mph 19.6 mph N/A   Clear
1:53 PM 79.0 °F - 44.1 °F 29% 29.76 in 10.0 mi South 15.0 mph 23.0 mph N/A   Clear
2:53 PM 80.1 °F - 44.1 °F 28% 29.72 in 10.0 mi South 16.1 mph 23.0 mph N/A   Clear
3:53 PM 82.0 °F - 43.0 °F 25% 29.70 in 10.0 mi South 15.0 mph 23.0 mph N/A   Clear
4:53 PM 82.9 °F - 43.0 °F 24% 29.67 in 10.0 mi South 15.0 mph 25.3 mph N/A   Clear
5:53 PM 81.0 °F - 42.1 °F 25% 29.65 in 10.0 mi South 12.7 mph 20.7 mph N/A   Clear
6:53 PM 78.1 °F - 42.1 °F 28% 29.65 in 10.0 mi South 17.3 mph 24.2 mph N/A   Clear
7:53 PM 75.0 °F - 44.1 °F 33% 29.66 in 10.0 mi South 17.3 mph 26.5 mph N/A   Clear
8:53 PM 72.0 °F - 46.0 °F 40% 29.66 in 10.0 mi South 15.0 mph - N/A   Clear
9:53 PM 70.0 °F - 46.0 °F 42% 29.65 in 10.0 mi South 15.0 mph 24.2 mph N/A   Clear
10:53 PM 69.1 °F - 45.0 °F 42% 29.64 in 10.0 mi South 17.3 mph 24.2 mph N/A   Clear
11:53 PM 69.1 °F - 45.0 °F 42% 29.63 in 10.0 mi SSW 18.4 mph 29.9 mph N/A   Clear